Regional Weather Roundup
Issued by NWS

Home | Current Version | Previous Version | Text Only | Print | Product List | Glossary Off
Versions: 1 2 3 4 5 6 7 8 9 10 11 12 13 14 15 16 17 18 19 20 21 22 23 24 25 26 27 28 29 30 31 32 33 34 35 36 37 38 39 40 41 42 43 44 45 46 47 48 49 50

000
ASUS43 KDTX 272110
RWRMI
MICHIGAN HOURLY REGIONAL WEATHER ROUNDUP
NATIONAL WEATHER SERVICE DETROIT/PONTIAC MI
500 PM EDT THU APR 27 2017

NOTE: "FAIR" INDICATES FEW OR NO CLOUDS BELOW 12,000 FEET WITH NO
SIGNIFICANT WEATHER AND/OR OBSTRUCTION TO VISIBILITY.

MIZ047>049-052>055-059>063-066>070-074>076-081>083-272200-
SOUTHEAST LOWER MICHIGAN

CITY           SKY/WX    TMP DP  RH WIND       PRES   REMARKS
ADRIAN         CLOUDY    57  44  62 W18G28    29.65R
ALMA           CLOUDY    51  42  71 SW16G31   29.61R
ANN ARBOR      MOSUNNY   62  47  57 SW23G30   29.60R
BAD AXE        SUNNY     64  48  55 W17G30    29.51R
CARO           MOSUNNY   62  47  57 SW14G28   29.53R
DETROIT CITY   SUNNY     68  48  48 SW24G32   29.56R
DETROIT        MOSUNNY   66  48  52 SW22      29.60R
FLINT          PTSUNNY   62  46  55 W17G26    29.57R
GROSSE ILE     MOSUNNY   65  47  51 SW18G33   29.59R
HILLSDALE      CLOUDY    52  43  71 SW9G23    29.66R
HOWELL         CLOUDY    60  43  53 SW20G29   29.60R

CITY           SKY/WX    TMP DP  RH WIND       PRES   REMARKS
JACKSON        CLOUDY    54  43  66 W18G29    29.64R
LAMBERTVILLE   MOSUNNY   62  47  57 SW21G29   29.64R
LANSING        CLOUDY    55  40  56 W21G28    29.62R
LAPEER         FAIR      68  47  46 W16G28    29.55R
MASON          CLOUDY    56  44  64 W10G18    29.62R
MONROE         MOSUNNY   64  47  54 MISG      29.61R
MT. CLEMENS    MOSUNNY   70  51  50 SW23G29   29.53R
PONTIAC        PTSUNNY   66  48  52 W16G25    29.55R
PORT HOPE        N/A     65  48  54 W13G32    29.48R
PORT HURON     PTSUNNY   70  54  56 S13G22    29.53S
TRI CITIES     PTSUNNY   57  43  59 SW20G37   29.57R
MIDLAND        CLOUDY    55  40  56 SW18G29   29.56R
TROY           MOSUNNY   69  43  38 SW21G31   29.57R
SAGINAW HB     MOSUNNY   61  39  44 SW25G32   29.55R
$$
MIZ043>046-050>051-056>058-064>065-071>073-077>080-272200-
SOUTHWEST LOWER MICHIGAN

CITY           SKY/WX    TMP DP  RH WIND       PRES   REMARKS
BATTLE CREEK   CLOUDY    51  43  74 SW21      29.65R
BENTON HARBOR  CLOUDY    48  38  68 SW18G25   29.69R
BIG RAPIDS     CLOUDY    46  37  70 SW21G29   29.58R
COLDWATER      CLOUDY    52  42  70 SW17G24   29.67R
FREMONT        CLOUDY    45  35  67 SW18G28   29.62R
HOLLAND        CLOUDY    47  39  74 W21G31    29.68R
GRAND RAPIDS   CLOUDY    48  41  76 SW21G32   29.64R
IONIA          CLOUDY    51  40  64 SW22      29.62R
KALAMAZOO      CLOUDY    49  39  68 W12       29.68R
LUDINGTON      CLOUDY    42  37  83 SW20G26   29.60R
MARSHALL       CLOUDY    54  42  65 SW14G25   29.65R
MOUNT PLEASANT CLOUDY    50  39  65 SW18G30   29.58R
MUSKEGON       CLOUDY    46  38  73 SW13G21   29.66R
SOUTH HAVEN    CLOUDY    47  38  71 SW12G23   29.69R
$$
MIZ016>042-272200-
NORTHERN LOWER MICHIGAN

CITY           SKY/WX    TMP DP  RH WIND       PRES   REMARKS
ALPENA         MOSUNNY   70  45  40 SW24G31   29.39R
BEAVER ISLAND  CLOUDY    41  38  88 SW17G25   29.47R FOG
BELLAIRE       CLOUDY    49  38  67 SW12G22   29.50R
CADILLAC       CLOUDY    45  37  73 SW22G29   29.53R
CHARLEVOIX     CLOUDY    47  39  75 SW18G29   29.51R
FRANKFORT      DRIZZLE   40  35  81 SW10G21   29.56R WCI  34
GAYLORD        CLOUDY    53  38  56 SW23G36   29.47R
GRAYLING       CLOUDY    51  38  62 SW17G25   29.50R
HARBOR SPRINGS CLOUDY    44  39  83 W13G24    29.46R
HOUGHTON LAKE  CLOUDY    50  40  68 SW20G30   29.52R
MANISTEE       CLOUDY    42  35  76 SW14G23   29.58R
OSCODA         SUNNY     66  41  39 SW29G37   29.44R
PELLSTON       PTSUNNY   51  39  63 W15G25    29.45R
ROGERS CITY    SUNNY     68  42  38 SW26G35   29.38R
TRAVERSE CITY  CLOUDY    46  38  73 SW14G23   29.50R
$$
MIZ007>008-015-272200-
EASTERN UPPER MICHIGAN

CITY           SKY/WX    TMP DP  RH WIND       PRES   REMARKS
KINROSS        CLOUDY    51  38  60 SW23G40   29.39R
MACKINAC ISLAN SUNNY     44  38  79 W25G39    29.45R
NEWBERRY       CLOUDY    43  38  84 S23G41    29.39R
S. S. MARIE    MOSUNNY   57  41  55 S26G38    29.37R
MUNISING         N/A     34  32  92 NW9       29.43R WCI  27
$$
MIZ004>006-011>014-085-272200-
CENTRAL UPPER MICHIGAN

CITY           SKY/WX    TMP DP  RH WIND       PRES   REMARKS
MANISTIQUE     CLOUDY    37  36  97 W5        29.45R FOG     WCI  33
ESCANABA       LGT RAIN  37  35  92 W14       29.46R FOG     WCI  28
MENOMINEE      RAIN      37  36  93 W10G20    29.52R WCI  30
SAWYER-GWINN   LGT SNOW  32  30  93 W13       29.42R WCI  22
$$
MIZ001>003-009>011-084-272200-
WESTERN UPPER MICHIGAN

CITY           SKY/WX    TMP DP  RH WIND       PRES   REMARKS
IRON MOUNTAIN  LGT SNOW  32  28  85 W7        29.45R FOG     WCI  26
HOUGHTON       LGT SNOW  27  23  85 W20       29.40R FOG     WCI  13
COPPER HARBOR    N/A     29  26  89 N16G24    29.39R WCI  17
IRONWOOD       CLOUDY    26  23  88 W17G23    29.50R WCI  13
$$

ABBREVIATIONS USED IN REMARKS
   TC - TEMPERATURE IN CELSIUS
  WCI - WIND CHILL INDEX
   HX - HEAT INDEX
  VSB - VISIBILITY




USA.gov is the U.S. government's official web portal to all federal, state and local government web resources and services.